This is the latest recevied weather packets stored in our database for station/object KY0TEQ-13. If no packets are shown the sender has not sent any weather packets the latest 10 day(s).
| Time | Temp. | Humidity | Pressure | Rain* | Wind** | Luminosity | Snow |
|---|---|---|---|---|---|---|---|
| 1788386301 | 24.44° C | 29% | 1307.7 hPa | 0 mm | - | 187 W/m² | - |
| 1788386001 | 23.89° C | 30% | 1307.8 hPa | 0 mm | - | 153 W/m² | - |
| 1788385696 | 24.44° C | 29% | 1307.7 hPa | 0 mm | - | 160 W/m² | - |
| 1788385395 | 24.44° C | 29% | 1307.9 hPa | 0 mm | - | 183 W/m² | - |
| 1788385091 | 24.44° C | 29% | 1308 hPa | 0 mm | - | 185 W/m² | - |
| 1788384787 | 24.44° C | 28% | 1307.9 hPa | 0 mm | - | 162 W/m² | - |
| 1788384485 | 24.44° C | 28% | 1307.8 hPa | 0 mm | - | 126 W/m² | - |
| 1788384203 | 26.11° C | 27% | 1307.9 hPa | 0 mm | - | 159 W/m² | - |
| 1788383878 | 25.56° C | 25% | 1308 hPa | 0 mm | - | 681 W/m² | - |
| 1788383574 | 26.11° C | 26% | 1307.9 hPa | 0 mm | - | 536 W/m² | - |
| 1788383273 | 25.56° C | 27% | 1308.2 hPa | 0 mm | - | 646 W/m² | - |
| 1788382968 | 25.56° C | 26% | 1307.9 hPa | 0 mm | - | 203 W/m² | - |
| 1788382666 | 25.56° C | 25% | 1307.9 hPa | 0 mm | - | 751 W/m² | - |
| 1788382362 | 25.56° C | 27% | 1308 hPa | 0 mm | - | 450 W/m² | - |
| 1788382057 | 25.56° C | 27% | 1308.4 hPa | 0 mm | - | 244 W/m² | - |
| 1788381753 | 25° C | 27% | 1308.2 hPa | 0 mm | - | 271 W/m² | - |
| 1788381452 | 25.56° C | 27% | 1308.4 hPa | 0 mm | - | 197 W/m² | - |
| 1788381147 | 25.56° C | 28% | 1308.5 hPa | 0 mm | - | 701 W/m² | - |
| 1788380842 | 25.56° C | 26% | 1308.4 hPa | 0 mm | - | 674 W/m² | - |
| 1788380539 | 25.56° C | 25% | 1308.4 hPa | 0 mm | - | 681 W/m² | - |
| 1788380236 | 26.11° C | 25% | 1308.9 hPa | 0 mm | - | 708 W/m² | - |
| 1788379934 | 25.56° C | 26% | 1308.8 hPa | 0 mm | - | 757 W/m² | - |
| 1788379629 | 25° C | 27% | 1308.9 hPa | 0 mm | - | 804 W/m² | - |
| 1788379325 | 25.56° C | 26% | 1308.9 hPa | 0 mm | - | 807 W/m² | - |
| 1788379026 | 25.56° C | 27% | 1309 hPa | 0 mm | - | 586 W/m² | - |
* Rain latest hour (hover to see other rain measurements)
** Current wind speed in m/s (hover to see current wind gust speed)